Location: Newark
(19.2128°S, 49.7858°W)
Time: 10:13:34
(UTC+00:00)

Envisat - Pass Details

Date: 27 August 2019
Orbit: 764 x 766 km, 98.1° (Epoch: 15 September)

Event Time Altitude Azimuth Distance (km) Brightness Sun altitude
Rises 22:15:46 0° 171° (S) 3,251 6.1 -16.2°
Reaches altitude 10° 22:18:05 10° 172° (S) 2,319 5.4 -16.7°
Maximum altitude 22:23:12 76° 257° (WSW) 795 3.2 -17.9°
Drops below altitude 10° 22:28:15 10° 342° (NNW) 2,295 5.7 -19.1°
Sets 22:30:32 0° 344° (NNW) 3,215 6.5 -19.6°
